Regional Weather Roundup
Issued by NWS Mobile, AL

Home | Current Version | Previous Version | Text Only | Print | Product List | Glossary On
Versions: 1 2 3 4 5 6 7 8 9 10 11 12 13 14 15 16 17 18 19 20 21 22 23 24 25 26 27 28 29 30 31 32 33 34 35 36 37 38 39 40 41 42 43 44 45 46 47 48 49 50
000
ASUS44 KMOB 020416
RWRMOB
REGIONAL WEATHER ROUNDUP
NATIONAL WEATHER SERVICE MOBILE AL
1100 PM CDT WED APR 01 2015

ALZ061>064-020500-
COASTAL ALABAMA


CITY           SKY/WX    TMP DP  RH WIND       PRES   REMARKS
MOBILE REG APT CLOUDY    67  65  93 SE5       30.10S
BROOKLEY FIELD CLOUDY    71  66  84 S6        30.10S
GULF SHORES    CLOUDY    70  68  92 S6        30.10S

$$

ALZ051>060-020500-
INTERIOR SOUTHWEST AND SOUTH CENTRAL ALABAMA


CITY           SKY/WX    TMP DP  RH WIND       PRES   REMARKS
ANDALUSIA/OPP  PTCLDY    70  61  73 W3        30.11R
EVERGREEN      MOCLDY    66  60  81 S5        30.11R
FLORALA        PTCLDY    65  61  87 SW5       30.13R
GREENVILLE     FAIR      66  57  72 SW3       30.10R

$$

FLZ001>006-020500-
WESTERN FLORIDA PANHANDLE


CITY           SKY/WX    TMP DP  RH WIND       PRES   REMARKS
CRESTVIEW      MOCLDY    66  62  87 S3        30.13R
DESTIN         CLOUDY    71  67  87 S3        30.11S
DUKE FIELD     MOCLDY    65  62  89 S3        30.11R
MARY ESTHER    CLOUDY    69  64  85 S6        30.10S
MILTON         CLOUDY    68  63  84 S3        30.11S
PENSACOLA      CLOUDY    68  66  93 S6        30.10S
NAS PENSACOLA  CLOUDY    71  68  90 S8        30.10R
VALPARAISO     MOCLDY    69  67  90 SW5       30.11S

$$

...MARINE OBSERVATIONS...

STATION/POSITION TIME  SKY/WX   TEMP    WIND        PRES    VSBY
                                AIR SEA DIR/SP/G
                 (UTC)          (F)     (DEG/KT/KT) (MB)    (MI)
PASCAGOULA       0300            72     160/ 12/ 13 1018.3R
PETIT BOIS ISL   0300            74     140/  7/  9 1018.9R
E DAUPHIN ISLAND 0400            71     170/  9/ 11 1018.6R
MIDDLE BAY LIGHT 0300                   120/  9     1018.0S
USCG MOBILE BAY  0300            71 70  190/  4/  8 1017.9R
STATE DOCKS      0300            69 65              1018.7R
MEAHER PARK      0400            70     140/  5     1019.0S
FORT MORGAN      0300            72     200/ 15/ 17 1018.4R
12 S ORANGE BCH  0350            71 71  160/  8/  8 1018.4S
WVE H/P(F/S)=  2/ 4

PENSACOLA BAY    0300            73 73  200/  2/  4 1019.5R
64 S DAUPHIN ISL 0350            73 72  170/ 16/ 17 1019.1F
WVE H/P(F/S)=  3/ 4

115 SE PENSACOLA 0350            73 75  220/  8/ 10 1020.8R
WVE H/P(F/S)=  2/ 6

MID GULF/42001   0350            78 77  130/ 16/ 19 1018.9R
WVE H/P(F/S)=  3/ 5

EAST GULF/42003  0350            72 74  110/ 10/ 12 1020.4S
WVE H/P(F/S)=  2/ 6


$$

...NEARBY LOCATIONS

CITY           SKY/WX    TMP DP  RH WIND       PRES   REMARKS
GULFPORT       MOCLDY    72  69  90 SE9       30.07R
BILOXI         CLOUDY    72  70  95 S9        30.07S
PASCAGOULA     MOCLDY    68  66  93 SE5       30.08S
HATTIESBURG    CLOUDY    70  66  87 S6        30.07S
LAUREL         CLOUDY    68  63  83 S6        30.07S
MERIDIAN       MOCLDY    65  59  81 S7        30.06R
MERIDIAN NAS   MOCLDY    66  58  75 S3        30.06R
MONTGOMERY     PTCLDY    66  58  75 CALM      30.08S
MAXWELL AFB    CLEAR     65  60  85 S2        30.08R
TROY           PTCLDY    67  56  67 SW5       30.11R
FORT RUCKER    PTCLDY    67  60  78 S3        30.10S
DALEVILLE      PTCLDY    66  59  77 SW6       30.11R
DOTHAN         PTCLDY    67  61  81 SW7       30.15R

$$

...OTHER SURROUNDING LOCATIONS...

CITY           SKY/WX    TMP DP  RH WIND       PRES   REMARKS
BIRMINGHAM     PTCLDY    68  56  65 CALM      30.09R
TUSCALOOSA     CLEAR     67  61  81 CALM      30.06R
COLUMBUS GA    CLEAR     64  55  72 CALM      30.09S
PANAMA CITY    NOT AVBL
TALLAHASSEE    MOCLDY    67  59  75 CALM      30.12S
BATON ROUGE    MOCLDY    71  65  81 S8        30.03S
NEW ORLEANS    MOCLDY    72  66  81 SE6       30.05S
SLIDELL        CLOUDY    72  69  90 S5        30.05S
JACKSON        CLOUDY    71  60  68 S9        30.02R
MCCOMB         MOCLDY    68  63  84 S6        30.05R

$$

...SURROUNDING MARINE OBSERVATIONS...

STATION/POSITION TIME  SKY/WX   TEMP    WIND        PRES    VSBY
                                AIR SEA DIR/SP/G
                 (UTC)          (F)     (DEG/KT/KT) (MB)    (MI)
WAVELAND         0300            73 74  160/ 11/ 13 1017.8S
PASCAGOULA RGN A 0300            73     170/  9/ 12 1018.2R
PASCAGOULA PORT  0300               73                N/A
GRAND ISLE       0300            73 71  160/  5/  7 1017.9R
SOUTHWEST PASS   0400            72     130/ 14/ 14 1017.9F
PILOT STATION E  0300            69 56  150/  6/ 10 1018.9R
SHELL BEACH      0300            72 73  150/  6/  8 1018.0R
PANAMA CITY      0300            70 71  210/  7/  8 1019.4R
APALACHICOLA     0300            70 68  250/  3/  5 1019.9R
TYNDALL TOWER C  0400            70     230/  9/ 10 1020.4R
S APLCHCLA/42036 0350            70 69  230/  4/  4 1020.9R
WVE H/P(F/S)=  1/ 4


$$



USA.gov is the U.S. government's official web portal to all federal, state and local government web resources and services.